Dewpoint
28 29 31 34 39 59 65 66 66 66 66 66 66 67 66 67 67 67 67 67 67 66 65 64 64 62 60 59 56 52 50 49
39 50 51 47 53 59 62 65 66 66 65 65 66 65 65 65 65 66 67 67 66 65 64 63 61 61 59 56 54 50 48 49
48 57 61 61 59 59 61 63 64 65 65 65 64 64 61 60 59 60 63 64 64 64 62 61 60 58 57 56 53 51 50 52
50 54 57 60 60 61 62 62 63 63 63 61 59 59 58 58 57 57 57 58 60 61 59 58 58 58 55 54 54 51 51 53
50 51 53 57 61 63 63 64 64 62 62 62 62 62 60 59 57 54 54 54 55 56 56 55 54 53 52 51 52 53 53 51
50 51 53 54 58 62 64 64 63 62 61 61 61 60 58 55 54 53 51 51 52 53 53 52 52 51 51 52 52 52 52 52
51 53 53 53 55 59 60 61 61 61 60 60 60 59 56 54 52 52 50 49 50 50 51 51 51 51 51 52 52 51 52 51
50 50 52 52 53 56 58 58 57 58 59 59 59 57 55 54 52 50 49 48 48 49 50 50 50 50 50 50 50 50 50 50
48 51 52 53 53 53 56 57 57 56 56 56 55 55 53 52 50 49 48 48 48 49 49 48 48 48 48 48 48 48 48 48
47 51 53 53 53 53 53 54 54 53 53 52 52 51 51 49 48 48 47 47 47 47 47 47 47 47 47 47 46 45 46 45
47 51 53 54 53 53 53 54 53 53 52 51 50 50 49 48 48 47 47 47 47 47 46 46 45 45 45 45 44 44 43 43
47 49 52 54 54 53 53 53 52 51 51 50 50 49 48 48 47 47 46 46 46 46 45 45 44 43 43 42 42 42 42 41
42 47 50 53 54 54 53 53 52 52 51 50 49 48 48 47 46 46 46 45 46 45 45 44 43 42 41 41 41 40 40 39
44 48 50 53 54 55 54 53 52 51 51 50 48 48 47 46 46 46 45 45 44 43 42 42 41 41 40 39 39 39 38 37
48 48 50 52 52 51 52 52 51 51 50 49 48 48 47 47 46 45 45 45 44 43 42 41 41 40 39 38 37 36 36 34
43 44 45 46 47 48 50 51 51 50 50 49 48 48 48 47 46 46 46 45 44 43 42 41 40 39 37 36 36 34 33 32
29 30 34 37 42 44 46 48 49 53 50 49 48 48 48 47 47 46 46 45 43 43 41 39 38 37 34 35 34 33 32 30
24 25 27 32 35 39 40 45 47 48 48 51 49 49 48 47 47 46 45 43 42 41 40 39 37 36 34 34 34 33 31 29
24 24 24 26 32 35 38 41 44 46 46 47 50 49 48 47 47 45 44 43 42 41 40 38 37 35 34 34 34 33 31 29
Wind_Speed
22 20 13 17 19 27 30 27 25 24 17 15 13 12 13 14 17 18 20 21 21 18 13 14 16 17 16 14 20 13 16 19
3 7 9 8 15 23 26 26 25 24 21 22 18 20 17 11 12 15 18 18 18 20 16 15 14 17 21 22 13 21 11 13
13 16 17 14 10 17 22 22 24 24 21 16 12 12 6 6 5 6 9 13 13 14 16 16 17 12 9 9 10 9 6 8
13 16 17 15 11 10 16 20 24 22 20 17 12 12 9 6 7 7 6 9 11 14 13 14 13 12 11 8 7 14 10 7
13 12 14 13 10 7 13 15 18 17 21 21 22 21 15 9 11 8 9 8 11 13 15 13 14 13 14 13 10 12 12 16
14 11 12 10 12 11 7 11 10 12 14 17 18 17 8 8 11 12 8 8 9 12 17 15 16 14 15 17 16 15 10 10
12 10 11 12 11 12 12 10 8 6 5 5 11 16 14 14 14 14 11 8 6 7 11 15 15 15 17 17 16 16 16 16
12 9 9 10 12 10 8 9 7 7 4 4 3 6 10 13 16 15 15 12 8 9 10 10 12 11 14 11 13 14 11 15
8 7 8 8 9 9 8 6 5 5 4 5 6 9 9 7 7 10 9 12 13 11 13 11 15 15 15 16 14 13 16 17
10 11 14 11 9 9 10 10 7 5 4 5 5 7 10 11 12 9 12 11 12 12 13 16 16 11 12 12 13 14 13 14
11 13 15 14 13 13 10 9 8 7 6 6 6 8 9 11 13 15 15 15 14 14 12 11 10 12 9 10 11 11 13 12
11 14 15 14 13 14 13 13 13 12 11 10 10 10 12 13 14 16 16 15 16 15 12 11 11 10 9 9 10 13 14 15
3 15 7 16 16 14 15 14 14 13 12 11 10 10 9 9 10 10 12 14 13 14 14 13 12 13 13 13 15 12 16 14
2 9 13 14 17 17 17 15 15 14 14 14 13 13 13 12 12 11 12 13 13 13 13 12 12 13 13 11 10 12 13 13
20 21 19 16 14 10 1 3 6 11 14 15 16 16 15 14 14 15 14 13 15 14 13 15 14 13 13 13 12 13 13 11
19 19 18 18 18 16 14 8 7 9 10 12 14 15 14 15 15 16 15 13 13 15 18 14 15 13 13 16 17 17 18 15
14 15 14 13 13 13 12 12 13 9 12 15 11 12 14 16 16 15 15 16 14 15 15 18 19 15 19 21 20 19 18 20
11 9 7 5 5 6 11 13 14 12 9 9 17 18 19 18 16 18 17 19 19 21 20 18 19 16 24 23 22 18 21 22
3 3 3 4 4 8 9 10 10 16 15 13 9 14 18 21 26 25 25 23 24 23 22 22 20 19 25 24 25 18 16 18
Wind_Direction
267 273 268 231 197 175 176 181 181 175 170 156 164 172 185 185 193 195 191 199 201 197 198 201 186 187 183 174 170 174 172 173
318 65 54 114 156 161 172 173 177 168 168 171 172 184 179 181 186 190 191 196 198 203 190 188 181 194 190 174 161 166 174 152
90 75 63 59 138 161 168 172 171 175 175 173 168 166 149 141 148 147 180 187 185 192 184 182 180 176 175 175 153 159 148 185
100 78 67 67 93 153 173 176 173 171 156 133 114 101 105 136 156 145 135 149 152 160 156 144 137 144 157 147 155 165 161 139
117 102 81 65 70 115 164 167 167 166 159 161 170 182 179 188 171 157 139 129 138 136 134 131 130 130 136 126 130 142 145 180
128 109 92 65 50 61 102 139 150 162 171 173 171 174 162 143 147 151 140 125 128 140 138 136 138 133 130 131 132 136 132 138
114 106 97 82 65 62 62 88 73 81 118 144 182 183 169 162 168 175 166 140 120 120 133 138 135 134 132 135 139 152 161 154
139 141 124 110 98 99 87 86 78 67 103 107 126 174 179 188 178 179 169 157 146 131 123 122 123 125 122 114 128 128 138 138
162 159 144 131 116 122 130 140 139 126 142 169 171 168 171 173 173 162 156 150 148 146 135 135 139 134 136 135 132 146 153 147
171 166 173 161 152 153 152 154 160 164 157 156 154 157 165 165 154 146 147 143 146 142 149 153 149 153 155 149 146 145 138 138
180 178 180 179 171 159 157 161 162 158 153 158 168 165 160 160 153 165 163 154 156 154 157 153 145 140 141 134 141 142 148 133
218 207 194 177 171 167 163 164 164 164 164 165 169 170 166 165 169 166 163 153 159 153 150 142 139 139 144 148 160 165 157 155
219 229 171 180 177 173 175 178 170 174 170 160 155 153 153 157 165 164 157 153 151 146 146 149 153 158 159 167 174 165 157 160
22 189 184 182 182 183 184 182 179 174 166 164 165 163 164 167 167 163 159 154 146 142 148 157 167 166 166 163 162 164 166 169
47 38 35 41 46 39 62 213 190 180 173 173 177 178 171 170 173 172 169 162 159 160 166 164 166 169 174 169 165 169 157 153
54 46 36 34 36 30 29 23 229 206 197 190 192 183 179 172 170 173 172 173 182 170 164 173 163 175 173 173 169 166 150 143
65 54 43 30 20 3 351 349 353 349 218 210 196 186 181 184 177 174 177 181 176 167 175 169 170 178 179 178 165 158 152 147
75 57 39 10 348 347 336 323 318 317 321 249 208 193 190 186 179 169 175 181 177 182 184 179 186 183 183 177 162 161 160 155
61 23 332 313 326 316 303 287 282 281 279 275 266 219 206 186 185 187 185 193 194 190 188 178 185 189 188 176 167 163 161 155